Location: Observatoire
(46.1952°N, 5.3391°E)
Time: 14:29:56
(UTC+01:00)

Courier 1B - Pass Details

Date: 21 February 2026
Orbit: 962 x 1208 km, 28.3° (Epoch: 5 March)

Event Time Altitude Azimuth Distance (km) Brightness Sun altitude
Rises 19:05:39 0° 219° (SW) 3,801 11.3 -9.8°
Reaches altitude 10° 19:09:39 10° 198° (SSW) 2,902 10.3 -10.5°
Maximum altitude 19:13:24 15° 165° (SSE) 2,596 9.6 -11.1°
Drops below altitude 10° 19:17:15 10° 134° (SE) 3,003 9.7 -11.8°
Enters shadow 19:18:44 - 125° (SE) 3,312 9.8 -12.0°
